TimeCDT,TemperatureF,Dew PointF,Humidity,Sea Level PressureIn,VisibilityMPH,Wind Direction,Wind SpeedMPH,Gust SpeedMPH,PrecipitationIn,Events,Conditions,WindDirDegrees,DateUTC
12:15 AM,33.8,32.0,93,29.70,5.0,South,13.8,-,0.01,,Overcast,190,2013-03-18 05:15:00
12:35 AM,33.8,32.0,93,29.73,5.0,SSW,8.1,-,0.01,,Overcast,210,2013-03-18 05:35:00
12:55 AM,33.8,32.0,93,29.78,5.0,WSW,12.7,-,0.01,,Overcast,240,2013-03-18 05:55:00
1:15 AM,33.8,32.0,93,29.80,4.0,West,11.5,-,N/A,,Overcast,270,2013-03-18 06:15:00
1:35 AM,33.8,33.8,100,29.80,3.0,West,11.5,-,N/A,,Overcast,280,2013-03-18 06:35:00
1:55 AM,33.8,33.8,100,29.80,5.0,West,6.9,-,N/A,,Overcast,260,2013-03-18 06:55:00
2:15 AM,33.8,33.8,100,29.82,5.0,WSW,9.2,-,N/A,,Overcast,250,2013-03-18 07:15:00
2:35 AM,33.8,32.0,93,29.81,8.0,West,11.5,-,N/A,,Overcast,270,2013-03-18 07:35:00
2:55 AM,35.6,32.0,87,29.80,10.0,West,11.5,-,N/A,,Overcast,280,2013-03-18 07:55:00
3:15 AM,35.6,30.2,81,29.81,10.0,WNW,11.5,-,N/A,,Scattered Clouds,290,2013-03-18 08:15:00
3:35 AM,33.8,28.4,81,29.82,10.0,WNW,10.4,-,N/A,,Clear,290,2013-03-18 08:35:00
3:55 AM,33.8,28.4,81,29.82,10.0,West,15.0,-,N/A,,Partly Cloudy,280,2013-03-18 08:55:00
4:15 AM,33.8,26.6,75,29.83,10.0,WNW,13.8,-,N/A,,Scattered Clouds,290,2013-03-18 09:15:00
4:35 AM,33.8,26.6,75,29.82,10.0,WNW,12.7,-,N/A,,Scattered Clouds,300,2013-03-18 09:35:00
4:55 AM,33.8,24.8,70,29.83,10.0,WNW,12.7,-,N/A,,Partly Cloudy,300,2013-03-18 09:55:00
5:15 AM,32.0,24.8,75,29.83,10.0,WNW,11.5,-,N/A,,Clear,290,2013-03-18 10:15:00
5:35 AM,32.0,21.2,64,29.83,10.0,WNW,15.0,-,N/A,,Clear,300,2013-03-18 10:35:00
5:55 AM,30.2,21.2,69,29.84,10.0,WNW,10.4,-,N/A,,Clear,300,2013-03-18 10:55:00
6:15 AM,28.4,21.2,74,29.85,10.0,WNW,8.1,-,N/A,,Clear,290,2013-03-18 11:15:00
6:35 AM,26.6,23.0,86,29.85,10.0,West,6.9,-,N/A,,Clear,280,2013-03-18 11:35:00
6:55 AM,26.6,21.2,80,29.86,10.0,West,4.6,-,N/A,,Clear,280,2013-03-18 11:55:00
7:15 AM,26.6,21.2,80,29.86,10.0,WNW,6.9,-,N/A,,Clear,290,2013-03-18 12:15:00
7:35 AM,26.6,21.2,80,29.86,10.0,NW,4.6,-,N/A,,Clear,310,2013-03-18 12:35:00
7:55 AM,26.6,21.2,80,29.87,10.0,WNW,4.6,-,N/A,,Clear,290,2013-03-18 12:55:00
8:15 AM,26.6,23.0,86,29.87,10.0,WNW,4.6,-,N/A,,Clear,300,2013-03-18 13:15:00
8:35 AM,26.6,23.0,86,29.87,10.0,WNW,5.8,-,N/A,,Clear,290,2013-03-18 13:35:00
8:55 AM,30.2,24.8,80,29.88,10.0,West,8.1,-,N/A,,Clear,280,2013-03-18 13:55:00
9:15 AM,30.2,24.8,80,29.89,10.0,West,8.1,-,N/A,,Clear,280,2013-03-18 14:15:00
9:35 AM,32.0,24.8,75,29.89,10.0,West,12.7,-,N/A,,Clear,280,2013-03-18 14:35:00
9:55 AM,33.8,26.6,75,29.90,10.0,WNW,10.4,-,N/A,,Clear,290,2013-03-18 14:55:00
10:15 AM,33.8,24.8,70,29.91,10.0,WNW,10.4,-,N/A,,Clear,300,2013-03-18 15:15:00
10:35 AM,35.6,28.4,75,29.91,10.0,NW,10.4,-,N/A,,Clear,320,2013-03-18 15:35:00
10:55 AM,35.6,26.6,70,29.92,10.0,NW,10.4,-,N/A,,Clear,310,2013-03-18 15:55:00
11:15 AM,35.6,26.6,70,29.93,10.0,North,11.5,-,N/A,,Scattered Clouds,350,2013-03-18 16:15:00
11:35 AM,35.6,26.6,70,29.94,10.0,WNW,12.7,18.4,N/A,,Partly Cloudy,300,2013-03-18 16:35:00
11:55 AM,37.4,24.8,60,29.94,10.0,WNW,15.0,-,N/A,,Partly Cloudy,290,2013-03-18 16:55:00
12:15 PM,37.4,24.8,60,29.94,10.0,WNW,13.8,20.7,N/A,,Scattered Clouds,290,2013-03-18 17:15:00
12:35 PM,39.2,23.0,52,29.95,10.0,WNW,16.1,24.2,N/A,,Scattered Clouds,300,2013-03-18 17:35:00
12:55 PM,39.2,23.0,52,29.95,10.0,WNW,18.4,24.2,N/A,,Scattered Clouds,300,2013-03-18 17:55:00
1:15 PM,39.2,21.2,49,29.96,10.0,WNW,17.3,29.9,N/A,,Partly Cloudy,300,2013-03-18 18:15:00
1:35 PM,41.0,19.4,42,29.95,10.0,NW,18.4,25.3,N/A,,Clear,310,2013-03-18 18:35:00
1:55 PM,42.8,19.4,39,29.95,10.0,WNW,19.6,23.0,N/A,,Partly Cloudy,300,2013-03-18 18:55:00
2:15 PM,42.8,17.6,36,29.95,10.0,NW,19.6,28.8,N/A,,Partly Cloudy,310,2013-03-18 19:15:00
2:35 PM,44.6,17.6,34,29.95,10.0,WNW,16.1,29.9,N/A,,Clear,300,2013-03-18 19:35:00
2:55 PM,44.6,15.8,31,29.94,10.0,NW,20.7,31.1,N/A,,Clear,310,2013-03-18 19:55:00
3:15 PM,44.6,15.8,31,29.94,10.0,WNW,25.3,29.9,N/A,,Clear,300,2013-03-18 20:15:00
3:35 PM,44.6,12.2,27,29.94,10.0,NW,23.0,33.4,N/A,,Clear,320,2013-03-18 20:35:00
3:55 PM,46.4,12.2,25,29.94,10.0,WNW,18.4,31.1,N/A,,Clear,300,2013-03-18 20:55:00
4:15 PM,44.6,12.2,27,29.94,10.0,WNW,16.1,28.8,N/A,,Clear,300,2013-03-18 21:15:00
4:35 PM,46.4,12.2,25,29.94,10.0,NW,19.6,31.1,N/A,,Clear,310,2013-03-18 21:35:00
4:55 PM,44.6,10.4,25,29.94,10.0,WNW,20.7,27.6,N/A,,Clear,300,2013-03-18 21:55:00
5:15 PM,46.4,10.4,23,29.95,10.0,NW,19.6,28.8,N/A,,Clear,310,2013-03-18 22:15:00
5:35 PM,44.6,10.4,25,29.95,10.0,WNW,19.6,27.6,N/A,,Clear,300,2013-03-18 22:35:00
5:55 PM,44.6,10.4,25,29.94,10.0,WNW,18.4,25.3,N/A,,Clear,300,2013-03-18 22:55:00
6:15 PM,44.6,8.6,23,29.95,10.0,NW,19.6,26.5,N/A,,Clear,320,2013-03-18 23:15:00
6:35 PM,44.6,8.6,23,29.95,10.0,NW,18.4,25.3,N/A,,Clear,320,2013-03-18 23:35:00
6:55 PM,42.8,8.6,25,29.95,10.0,NNW,18.4,-,N/A,,Clear,330,2013-03-18 23:55:00
7:15 PM,41.0,10.4,29,29.96,10.0,NNW,15.0,-,N/A,,Clear,340,2013-03-19 00:15:00
7:35 PM,39.2,8.6,28,29.97,10.0,North,13.8,-,N/A,,Clear,350,2013-03-19 00:35:00
7:55 PM,37.4,8.6,30,29.97,10.0,North,13.8,-,N/A,,Clear,360,2013-03-19 00:55:00
8:15 PM,32.0,6.8,35,29.98,10.0,NNE,8.1,-,N/A,,Clear,20,2013-03-19 01:15:00
8:35 PM,30.2,10.4,44,29.98,10.0,NNE,11.5,-,N/A,,Scattered Clouds,20,2013-03-19 01:35:00
8:55 PM,33.8,10.4,38,29.98,10.0,NNE,11.5,-,N/A,,Overcast,20,2013-03-19 01:55:00
9:15 PM,33.8,10.4,38,29.99,10.0,NNE,9.2,-,N/A,,Overcast,30,2013-03-19 02:15:00
9:35 PM,33.8,10.4,38,30.01,10.0,NE,6.9,-,N/A,,Overcast,40,2013-03-19 02:35:00
9:55 PM,33.8,10.4,38,30.02,10.0,NE,6.9,-,N/A,,Overcast,40,2013-03-19 02:55:00
10:15 PM,33.8,10.4,38,30.03,10.0,NE,4.6,-,N/A,,Overcast,50,2013-03-19 03:15:00
10:35 PM,33.8,12.2,41,30.04,10.0,ENE,3.5,-,N/A,,Overcast,60,2013-03-19 03:35:00
10:55 PM,33.8,12.2,41,30.05,10.0,Calm,Calm,-,N/A,,Overcast,0,2013-03-19 03:55:00
11:15 PM,33.8,14.0,44,30.06,10.0,Calm,Calm,-,N/A,,Overcast,0,2013-03-19 04:15:00
11:35 PM,33.8,15.8,48,30.05,10.0,Calm,Calm,-,N/A,,Overcast,0,2013-03-19 04:35:00
11:55 PM,33.8,12.2,41,30.04,10.0,Calm,Calm,-,N/A,,Overcast,0,2013-03-19 04:55:00